• en Suisse
  • Liste des pays
  • À 7 jours
  • Température de l'eau
  • Carte satellitaire
  • Carte météo
  • Widgets météo
  • user-avatar
    Se connecter

    Météo par heure à Oxford

    Ce jour, 15 Août, Mercredi

    Heure Température Précipitation Vent Pression Humidité
    00:00 +16°C° 0 mm 3 m/s 758 mmHg 91%
    01:00 +16°C° 0 mm 3 m/s 757 mmHg 92%
    02:00 +16°C° 0 mm 3 m/s 757 mmHg 92%
    03:00 +15°C° 0 mm 4 m/s 757 mmHg 92%
    04:00 +15°C° 0 mm 4 m/s 757 mmHg 90%
    05:00 +17°C° 0 mm 4 m/s 757 mmHg 89%
    06:00 +18°C° 0 mm 3 m/s 757 mmHg 88%
    07:00 +18°C° 0 mm 4 m/s 757 mmHg 85%
    08:00 +19°C° 0 mm 4 m/s 758 mmHg 82%
    09:00 +20°C° 0 mm 5 m/s 758 mmHg 80%
    10:00 +21°C° 0 mm 5 m/s 758 mmHg 76%
    11:00 +21°C° 0 mm 5 m/s 757 mmHg 72%
    12:00 +23°C° 0 mm 5 m/s 757 mmHg 68%
    13:00 +23°C° 0 mm 5 m/s 757 mmHg 68%
    14:00 +23°C° 0 mm 6 m/s 757 mmHg 67%
    15:00 +23°C° 0 mm 6 m/s 757 mmHg 67%
    16:00 +22°C° 0 mm 6 m/s 756 mmHg 69%
    17:00 +22°C° 0 mm 6 m/s 756 mmHg 70%
    18:00 +22°C° 0 mm 5 m/s 756 mmHg 72%
    19:00 +21°C° 0 mm 5 m/s 756 mmHg 77%
    20:00 +20°C° 0 mm 5 m/s 756 mmHg 82%
    21:00 +17°C° 0 mm 5 m/s 755 mmHg 87%
    22:00 +17°C° 0 mm 5 m/s 755 mmHg 89%
    23:00 +17°C° 0 mm 5 m/s 755 mmHg 91%

    Demain, 16 Août, Jeudi

    Heure Température Précipitation Vent Pression Humidité
    00:00 +16°C° 0 mm 6 m/s 755 mmHg 92%
    01:00 +17°C° 0,1 mm 6 m/s 754 mmHg 91%
    02:00 +17°C° 0,1 mm 6 m/s 754 mmHg 90%
    03:00 +19°C° 0,1 mm 6 m/s 753 mmHg 88%
    04:00 +17°C° 1 mm 6 m/s 753 mmHg 89%
    05:00 +17°C° 1 mm 5 m/s 753 mmHg 90%
    06:00 +17°C° 1 mm 5 m/s 753 mmHg 91%
    07:00 +18°C° 2,9 mm 4 m/s 753 mmHg 91%
    08:00 +17°C° 2,9 mm 4 m/s 753 mmHg 91%
    09:00 +17°C° 2,9 mm 3 m/s 753 mmHg 92%
    10:00 +17°C° 1,2 mm 4 m/s 754 mmHg 88%
    11:00 +17°C° 1,2 mm 4 m/s 754 mmHg 85%
    12:00 +17°C° 1,2 mm 4 m/s 754 mmHg 81%
    13:00 +17°C° 0 mm 4 m/s 754 mmHg 75%
    14:00 +18°C° 0 mm 4 m/s 755 mmHg 69%
    15:00 +19°C° 0 mm 5 m/s 755 mmHg 64%
    16:00 +19°C° 0 mm 4 m/s 755 mmHg 64%
    17:00 +19°C° 0 mm 4 m/s 755 mmHg 65%
    18:00 +19°C° 0 mm 4 m/s 755 mmHg 65%
    19:00 +17°C° 0 mm 4 m/s 755 mmHg 71%
    20:00 +16°C° 0 mm 3 m/s 756 mmHg 77%
    21:00 +13°C° 0 mm 3 m/s 756 mmHg 83%
    22:00 +13°C° 0 mm 3 m/s 756 mmHg 86%
    23:00 +12°C° 0 mm 3 m/s 756 mmHg 88%

    Après-demain, 17 Août, Vendredi

    Heure Température Précipitation Vent Pression Humidité
    00:00 +13°C° 0 mm 2 m/s 756 mmHg 91%
    01:00 +13°C° 0 mm 2 m/s 757 mmHg 92%
    02:00 +12°C° 0 mm 2 m/s 757 mmHg 93%
    03:00 +12°C° 0 mm 2 m/s 757 mmHg 93%
    04:00 +12°C° 0 mm 2 m/s 757 mmHg 92%
    05:00 +12°C° 0 mm 2 m/s 758 mmHg 91%
    06:00 +12°C° 0 mm 2 m/s 758 mmHg 91%
    07:00 +14°C° 0 mm 2 m/s 758 mmHg 82%
    08:00 +16°C° 0 mm 3 m/s 758 mmHg 74%
    09:00 +18°C° 0 mm 3 m/s 759 mmHg 66%
    10:00 +18°C° 0 mm 4 m/s 759 mmHg 63%
    11:00 +19°C° 0 mm 4 m/s 759 mmHg 59%
    12:00 +20°C° 0 mm 4 m/s 759 mmHg 56%
    13:00 +20°C° 0 mm 5 m/s 759 mmHg 56%
    14:00 +20°C° 0 mm 5 m/s 759 mmHg 55%
    15:00 +21°C° 0 mm 5 m/s 759 mmHg 55%
    16:00 +20°C° 0 mm 5 m/s 759 mmHg 58%
    17:00 +19°C° 0 mm 5 m/s 759 mmHg 62%
    18:00 +19°C° 0 mm 4 m/s 759 mmHg 65%
    19:00 +18°C° 0 mm 4 m/s 759 mmHg 71%
    20:00 +15°C° 0 mm 4 m/s 759 mmHg 78%
    21:00 +14°C° 0 mm 3 m/s 759 mmHg 84%
    22:00 +14°C° 0 mm 3 m/s 759 mmHg 86%
    23:00 +14°C° 0 mm 4 m/s 759 mmHg 89%

    18 Août, Samedi

    Heure Température Précipitation Vent Pression Humidité
    00:00 +14°C° 0 mm 4 m/s 759 mmHg 91%
    01:00 +14°C° 0 mm 4 m/s 759 mmHg 92%
    02:00 +14°C° 0 mm 4 m/s 759 mmHg 93%
    03:00 +14°C° 0 mm 4 m/s 759 mmHg 93%
    04:00 +14°C° 0 mm 4 m/s 759 mmHg 93%
    05:00 +14°C° 0 mm 4 m/s 759 mmHg 92%
    06:00 +15°C° 0 mm 4 m/s 759 mmHg 91%
    07:00 +17°C° 0 mm 4 m/s 759 mmHg 86%
    08:00 +18°C° 0 mm 4 m/s 759 mmHg 82%
    09:00 +19°C° 0 mm 5 m/s 759 mmHg 77%
    10:00 +20°C° 0 mm 5 m/s 759 mmHg 73%
    11:00 +21°C° 0 mm 5 m/s 759 mmHg 70%
    12:00 +22°C° 0 mm 5 m/s 759 mmHg 66%
    13:00 +22°C° 0 mm 5 m/s 759 mmHg 65%
    14:00 +23°C° 0 mm 5 m/s 759 mmHg 64%
    15:00 +23°C° 0 mm 5 m/s 759 mmHg 63%
    16:00 +23°C° 0 mm 5 m/s 759 mmHg 65%
    17:00 +22°C° 0 mm 4 m/s 759 mmHg 67%
    18:00 +22°C° 0 mm 4 m/s 759 mmHg 69%
    19:00 +21°C° 0 mm 3 m/s 759 mmHg 76%
    20:00 +19°C° 0 mm 3 m/s 760 mmHg 83%
    21:00 +18°C° 0 mm 3 m/s 760 mmHg 89%
    22:00 +17°C° 0 mm 3 m/s 760 mmHg 91%
    23:00 +17°C° 0 mm 3 m/s 760 mmHg 93%

    19 Août, Dimanche

    Heure Température Précipitation Vent Pression Humidité
    00:00 +16°C° 0 mm 3 m/s 760 mmHg 95%
    01:00 +16°C° 0 mm 3 m/s 759 mmHg 96%
    02:00 +16°C° 0 mm 3 m/s 759 mmHg 96%
    03:00 +17°C° 0 mm 3 m/s 759 mmHg 97%
    04:00 +17°C° 0 mm 4 m/s 759 mmHg 96%
    05:00 +18°C° 0 mm 4 m/s 758 mmHg 95%
    06:00 +17°C° 0 mm 5 m/s 758 mmHg 94%
    07:00 +19°C° 0,1 mm 5 m/s 758 mmHg 92%
    08:00 +19°C° 0,1 mm 6 m/s 758 mmHg 90%
    09:00 +20°C° 0,1 mm 7 m/s 758 mmHg 88%
    10:00 +20°C° 0,1 mm 7 m/s 758 mmHg 86%
    11:00 +21°C° 0,1 mm 7 m/s 758 mmHg 83%
    12:00 +21°C° 0,1 mm 7 m/s 758 mmHg 81%
    13:00 +22°C° 0,1 mm 7 m/s 758 mmHg 79%
    14:00 +22°C° 0,1 mm 7 m/s 758 mmHg 76%
    15:00 +22°C° 0,1 mm 7 m/s 758 mmHg 73%
    16:00 +22°C° 0 mm 6 m/s 758 mmHg 75%
    17:00 +22°C° 0 mm 6 m/s 758 mmHg 76%
    18:00 +21°C° 0 mm 5 m/s 758 mmHg 77%
    19:00 +20°C° 0 mm 5 m/s 758 mmHg 82%
    20:00 +19°C° 0 mm 4 m/s 759 mmHg 86%
    21:00 +18°C° 0 mm 4 m/s 759 mmHg 91%
    22:00 +18°C° 0 mm 4 m/s 759 mmHg 93%
    23:00 +18°C° 0 mm 4 m/s 759 mmHg 94%

    20 Août, Lundi

    Heure Température Précipitation Vent Pression Humidité
    00:00 +17°C° 0 mm 4 m/s 759 mmHg 96%
    01:00 +18°C° 0 mm 4 m/s 759 mmHg 96%
    02:00 +18°C° 0 mm 4 m/s 759 mmHg 96%
    03:00 +18°C° 0 mm 4 m/s 759 mmHg 95%
    04:00 +18°C° 0 mm 4 m/s 759 mmHg 95%
    05:00 +18°C° 0 mm 4 m/s 759 mmHg 94%
    06:00 +18°C° 0 mm 4 m/s 759 mmHg 93%
    07:00 +19°C° 0 mm 4 m/s 759 mmHg 88%
    08:00 +20°C° 0 mm 4 m/s 760 mmHg 82%
    09:00 +21°C° 0 mm 5 m/s 760 mmHg 76%
    10:00 +22°C° 0 mm 5 m/s 760 mmHg 73%
    11:00 +22°C° 0 mm 4 m/s 760 mmHg 69%
    12:00 +23°C° 0 mm 4 m/s 760 mmHg 66%
    13:00 +23°C° 0 mm 4 m/s 760 mmHg 66%
    14:00 +23°C° 0 mm 4 m/s 760 mmHg 66%
    15:00 +23°C° 0 mm 4 m/s 760 mmHg 66%
    16:00 +23°C° 0 mm 4 m/s 760 mmHg 68%
    17:00 +22°C° 0 mm 3 m/s 760 mmHg 70%
    18:00 +22°C° 0 mm 3 m/s 760 mmHg 72%
    19:00 +21°C° 0 mm 3 m/s 760 mmHg 76%
    20:00 +20°C° 0 mm 3 m/s 761 mmHg 79%
    21:00 +19°C° 0 mm 2 m/s 761 mmHg 83%
    22:00 +18°C° 0 mm 2 m/s 761 mmHg 85%
    23:00 +17°C° 0 mm 2 m/s 761 mmHg 88%
    Voir plus